N1VL Weather Reports


Display with metric or nautical units.
time (UTC)temp
F
wind
direction
speed
MPH
gust
MPH
rain 1hr
in
rain 24hr
in
rain mn
in
humidity
%
barometer
mb
20260505210903 57 106 5.0 9.0 0.00 0.00 0.00 48 1012.5
20260505210003 57 113 5.0 10.0 0.00 0.00 0.00 47 1012.5
20260505205403 57 115 6.0 10.0 0.00 0.00 0.00 47 1012.6
20260505204503 58 84 4.0 9.0 0.00 0.00 0.00 47 1012.6
20260505203603 58 91 5.0 9.0 0.00 0.00 0.00 48 1012.6
20260505202703 58 106 7.0 12.0 0.00 0.00 0.00 47 1012.6
20260505201824 57 87 6.0 10.0 0.00 0.00 0.00 49 1012.7
20260505200903 57 93 7.0 11.0 0.00 0.00 0.00 50 1012.8
20260505200003 56 100 7.0 11.0 0.00 0.00 0.00 50 1012.8
20260505195403 56 101 6.0 10.0 0.00 0.00 0.00 52 1012.8
20260505194521 55 89 6.0 10.0 0.00 0.00 0.00 52 1012.8
20260505193621 55 97 6.0 11.0 0.00 0.00 0.00 52 1012.9
20260505192700 55 86 6.0 14.0 0.00 0.00 0.00 53 1012.9
20260505191800 55 88 8.0 14.0 0.00 0.00 0.00 52 1013.0
20260505190921 55 104 6.0 12.0 0.00 0.00 0.00 52 1013.0
20260505190021 55 97 7.0 12.0 0.00 0.00 0.00 52 1013.0
20260505185400 56 78 7.0 11.0 0.00 0.00 0.00 53 1013.1
20260505184521 55 87 8.0 14.0 0.00 0.00 0.00 53 1013.1
20260505183621 55 89 8.0 14.0 0.00 0.00 0.00 54 1013.1
20260505182700 54 80 7.0 13.0 0.00 0.00 0.00 54 1013.1
20260505181800 54 92 7.0 13.0 0.00 0.00 0.00 54 1013.1
20260505180900 54 92 7.0 14.0 0.00 0.00 0.00 55 1013.1
20260505180000 53 87 8.0 15.0 0.00 0.00 0.00 55 1013.2
20260505175400 53 87 8.0 15.0 0.00 0.00 0.00 55 1013.3
20260505174500 53 79 8.0 15.0 0.00 0.00 0.00 55 1013.3
20260505173621 53 84 10.0 15.0 0.00 0.00 0.00 55 1013.2
20260505172700 53 80 8.0 14.0 0.00 0.00 0.00 56 1013.3
20260505171800 52 81 9.0 15.0 0.00 0.00 0.00 56 1013.3
20260505170900 52 78 8.0 15.0 0.00 0.00 0.00 56 1013.3
20260505170000 52 67 10.0 19.0 0.00 0.00 0.00 56 1013.4
20260505165421 51 69 10.0 19.0 0.00 0.00 0.00 56 1013.3
20260505164500 51 66 11.0 19.0 0.00 0.00 0.00 56 1013.3
20260505163600 51 70 10.0 18.0 0.00 0.00 0.00 56 1013.3
20260505162700 51 69 10.0 19.0 0.00 0.00 0.00 56 1013.3
20260505161800 51 71 11.0 21.0 0.00 0.00 0.00 56 1013.2
20260505160900 51 74 12.0 22.0 0.00 0.00 0.00 56 1013.2
20260505152700 51 81 10.0 16.0 0.00 0.00 0.00 56 1012.9
20260505151800 51 78 10.0 20.0 0.00 0.00 0.00 56 1012.9
20260505150900 51 79 11.0 20.0 0.00 0.00 0.00 57 1012.9
20260505124500 55 88 10.0 15.0 0.00 0.00 0.00 54 1011.0
20260505123600 54 94 7.0 20.0 0.00 0.00 0.00 50 1010.9
20260505122721 54 113 4.0 9.0 0.00 0.00 0.00 50 1010.7
20260505121800 54 114 4.0 10.0 0.00 0.00 0.00 50 1010.8
20260505120900 54 120 5.0 10.0 0.00 0.00 0.00 51 1010.9
20260505120000 54 129 6.0 10.0 0.00 0.00 0.00 52 1010.8
20260505115400 54 130 5.0 8.0 0.00 0.00 0.00 53 1010.8
20260505114500 55 126 6.0 9.0 0.00 0.00 0.00 53 1010.9
20260505113600 54 115 4.0 13.0 0.00 0.00 0.00 52 1010.9
20260505112700 54 89 7.0 13.0 0.00 0.00 0.00 51 1010.9
20260505111800 54 70 6.0 11.0 0.00 0.00 0.00 49 1010.7
20260505110900 54 83 4.0 9.0 0.00 0.00 0.00 46 1010.7
20260505101800 56 64 5.0 7.0 0.00 0.00 0.00 52 1010.9
20260505100900 56 97 4.0 7.0 0.00 0.00 0.00 53 1010.9
20260505100000 56 97 2.0 7.0 0.00 0.00 0.00 54 1010.9
20260505095400 56 92 2.0 6.0 0.00 0.00 0.00 54 1010.9
20260505094500 56 96 4.0 6.0 0.00 0.00 0.00 54 1010.7
20260505093621 56 103 4.0 8.0 0.00 0.00 0.00 53 1010.9
20260505092700 54 109 3.0 8.0 0.00 0.00 0.00 51 1010.8
20260505091800 54 135 2.0 4.0 0.00 0.00 0.00 52 1010.9
20260505090900 54 135 0.0 4.0 0.00 0.00 0.00 53 1010.8
20260505090000 54 135 2.0 6.0 0.00 0.00 0.00 53 1010.9
20260505085400 55 135 3.0 6.0 0.00 0.00 0.00 54 1011.0
20260505084500 55 131 4.0 6.0 0.00 0.00 0.00 54 1010.9
20260505083600 55 123 5.0 7.0 0.00 0.00 0.00 54 1011.0
20260505082700 55 120 2.0 5.0 0.00 0.00 0.00 54 1011.0
20260505081800 55 119 2.0 7.0 0.00 0.00 0.00 55 1011.0
20260505080900 56 108 3.0 7.0 0.00 0.00 0.00 55 1011.0
20260505080000 56 98 3.0 6.0 0.00 0.00 0.00 56 1011.0
20260505075400 56 98 2.0 7.0 0.00 0.00 0.00 56 1011.1
20260505074500 56 97 5.0 11.0 0.00 0.00 0.00 57 1011.2
20260505073621 56 103 4.0 10.0 0.00 0.00 0.00 57 1011.2
20260505072721 56 96 5.0 12.0 0.00 0.00 0.00 58 1011.5
20260505071800 56 88 7.0 12.0 0.00 0.00 0.00 58 1011.5
20260505070900 56 83 7.0 12.0 0.00 0.00 0.00 58 1011.6
20260505070021 56 86 5.0 10.0 0.00 0.00 0.00 58 1011.7
20260505065400 57 87 7.0 11.0 0.00 0.00 0.00 58 1011.7
20260505063601 57 84 6.0 11.0 0.00 0.00 0.00 55 1011.7
20260505062701 57 122 7.0 13.0 0.00 0.00 0.00 54 1011.8
20260505061800 57 145 9.0 21.0 0.00 0.00 0.00 54 1011.8
20260505060900 57 121 15.0 15.0 0.00 0.00 0.00 55 1011.9
20260505060001 57 128 7.0 15.0 0.00 0.00 0.00 55 1012.0
20260505055400 57 132 7.0 13.0 0.00 0.00 0.00 55 1012.1
20260505054501 57 149 10.0 20.0 0.00 0.00 0.00 56 1012.0
20260505053621 57 160 11.0 20.0 0.00 0.00 0.00 56 1011.8
20260505052701 57 151 8.0 24.0 0.00 0.00 0.00 56 1011.7
20260505051800 57 167 8.0 24.0 0.00 0.00 0.00 57 1011.7
20260505050900 57 179 12.0 24.0 0.00 0.00 0.00 56 1011.6
20260505040901 60 165 8.0 13.0 0.00 0.00 0.00 49 1010.5
20260505040000 61 144 6.0 11.0 0.00 0.00 0.00 47 1010.5
20260505035422 61 132 5.0 9.0 0.00 0.00 0.00 50 1010.4
20260505034500 62 116 5.0 10.0 0.00 0.00 0.00 49 1010.3
20260505033600 62 130 8.0 14.0 0.00 0.00 0.00 46 1010.1
20260505032701 62 119 6.0 13.0 0.00 0.00 0.00 48 1010.0
20260505031800 62 134 6.0 13.0 0.00 0.00 0.00 47 1009.9
20260505030900 62 140 5.0 9.0 0.00 0.00 0.00 47 1009.7
20260505030000 63 121 6.0 14.0 0.00 0.00 0.00 45 1009.5
20260505025401 63 124 8.0 14.0 0.00 0.00 0.00 45 1009.4
20260505024501 63 120 6.0 13.0 0.00 0.00 0.00 45 1009.3
20260505023600 64 119 8.0 14.0 0.00 0.00 0.00 46 1009.2
20260505022700 64 122 6.0 13.0 0.00 0.00 0.00 44 1009.1
20260505021822 64 104 6.0 13.0 0.00 0.00 0.00 39 1008.9
20260505020921 65 99 7.0 14.0 0.00 0.00 0.00 39 1008.8
20260505020001 65 102 7.0 14.0 0.00 0.00 0.00 39 1008.8
20260505015400 66 96 9.0 16.0 0.00 0.00 0.00 39 1008.9
20260505014521 66 98 8.0 15.0 0.00 0.00 0.00 38 1008.8
20260505013600 66 99 7.0 16.0 0.00 0.00 0.00 38 1008.8
20260505012700 66 94 8.0 16.0 0.00 0.00 0.00 38 1008.9
20260505011801 66 85 10.0 22.0 0.00 0.00 0.00 38 1008.9
20260505010900 67 86 12.0 22.0 0.00 0.00 0.00 38 1008.9
20260505010000 69 107 7.0 19.0 0.00 0.00 0.00 34 1008.9
20260505005401 70 106 6.0 10.0 0.00 0.00 0.00 31 1008.8
20260505004500 70 110 6.0 10.0 0.00 0.00 0.00 30 1008.8
20260505003600 70 111 5.0 11.0 0.00 0.00 0.00 31 1008.7
20260505002700 70 98 6.0 11.0 0.00 0.00 0.00 31 1008.8
20260505001801 70 166 3.0 9.0 0.00 0.00 0.00 31 1008.8
20260505000900 69 229 4.0 8.0 0.00 0.00 0.00 32 1008.8
20260505000001 70 280 4.0 9.0 0.00 0.00 0.00 32 1008.9
20260504235400 70 288 6.0 13.0 0.00 0.00 0.00 31 1009.0
20260504234501 70 276 8.0 13.0 0.00 0.00 0.00 32 1009.0
20260504233601 69 240 8.0 15.0 0.00 0.00 0.00 33 1008.9
20260504232721 68 233 9.0 15.0 0.00 0.00 0.00 32 1008.9
20260504231800 68 207 11.0 18.0 0.00 0.00 0.00 33 1009.0
20260504230900 70 261 7.0 19.0 0.00 0.00 0.00 32 1008.9
20260504230022 71 347 3.0 11.0 0.00 0.00 0.00 31 1008.9
20260504225401 71 344 6.0 11.0 0.00 0.00 0.00 31 1008.9
20260504224501 71 342 8.0 20.0 0.00 0.00 0.00 32 1009.1
20260504223601 72 7 11.0 21.0 0.00 0.00 0.00 31 1009.0
20260504222701 73 16 7.0 16.0 0.00 0.00 0.00 31 1009.0
20260504221800 73 3 3.0 6.0 0.00 0.00 0.00 30 1009.1
20260504220900 73 259 3.0 16.0 0.00 0.00 0.00 29 1008.9
20260504220001 72 212 5.0 16.0 0.00 0.00 0.00 30 1009.0
20260504215400 71 218 8.0 16.0 0.00 0.00 0.00 31 1009.1
20260504214500 69 204 9.0 15.0 0.00 0.00 0.00 33 1009.3
20260504213601 69 199 11.0 16.0 0.00 0.00 0.00 34 1009.4
20260504212700 69 199 11.0 16.0 0.00 0.00 0.00 34 1009.4
20260504211800 69 200 12.0 16.0 0.00 0.00 0.00 34 1009.3